When you browse on this site, cookies collect data to enhance your experience and personalize the content and advertising you see.
Visit our Privacy Policy to learn more. By continuing to use the site, you agree to this use of cookies and data.
  • In Schweiz
  • Länderverzeichnis
  • Für 7 Tage
  • Wassertemperatur
  • Wetterkarte
  • Widgets
  • user-avatar
    Anmelden

    Stündliche Wetter Rusanovo

    Heute, 17 August, Samstag

    Zeit Temperatur Niederschläge Wind Luftdruck Luftfeuchtigkeit
    00:00 +13°C° 0 mm 3 m/S 743 mmHg 89%
    01:00 +13°C° 0 mm 3 m/S 743 mmHg 88%
    02:00 +13°C° 0 mm 3 m/S 743 mmHg 85%
    03:00 +13°C° 0.1 mm 3 m/S 742 mmHg 86%
    04:00 +13°C° 0.1 mm 3 m/S 742 mmHg 87%
    05:00 +13°C° 0.1 mm 3 m/S 742 mmHg 89%
    06:00 +13°C° 0 mm 4 m/S 742 mmHg 88%
    07:00 +13°C° 0 mm 4 m/S 742 mmHg 87%
    08:00 +14°C° 0 mm 4 m/S 742 mmHg 86%
    09:00 +14°C° 0.2 mm 4 m/S 742 mmHg 86%
    10:00 +14°C° 0.2 mm 4 m/S 742 mmHg 87%
    11:00 +14°C° 0.2 mm 4 m/S 742 mmHg 87%
    12:00 +14°C° 0.2 mm 3 m/S 742 mmHg 88%
    13:00 +16°C° 0.2 mm 3 m/S 742 mmHg 90%
    14:00 +16°C° 0.2 mm 3 m/S 741 mmHg 91%
    15:00 +16°C° 0.2 mm 3 m/S 741 mmHg 92%
    16:00 +16°C° 0.2 mm 3 m/S 741 mmHg 93%
    17:00 +16°C° 0.2 mm 3 m/S 741 mmHg 94%
    18:00 +16°C° 0.3 mm 3 m/S 740 mmHg 94%
    19:00 +16°C° 0.3 mm 3 m/S 740 mmHg 95%
    20:00 +16°C° 0.3 mm 3 m/S 740 mmHg 96%
    21:00 +16°C° 0.8 mm 3 m/S 739 mmHg 96%
    22:00 +16°C° 0.8 mm 3 m/S 739 mmHg 97%
    23:00 +16°C° 0.8 mm 3 m/S 739 mmHg 97%

    Morgen, 18 August, Sonntag

    Zeit Temperatur Niederschläge Wind Luftdruck Luftfeuchtigkeit
    00:00 +16°C° 0.7 mm 3 m/S 739 mmHg 97%
    01:00 +14°C° 0.7 mm 3 m/S 739 mmHg 98%
    02:00 +14°C° 0.7 mm 3 m/S 739 mmHg 98%
    03:00 +14°C° 2.1 mm 3 m/S 738 mmHg 98%
    04:00 +14°C° 2.1 mm 3 m/S 738 mmHg 98%
    05:00 +14°C° 2.1 mm 3 m/S 738 mmHg 98%
    06:00 +14°C° 1.5 mm 3 m/S 739 mmHg 98%
    07:00 +13°C° 1.5 mm 3 m/S 739 mmHg 98%
    08:00 +13°C° 1.5 mm 3 m/S 739 mmHg 98%
    09:00 +13°C° 1.1 mm 3 m/S 739 mmHg 97%
    10:00 +15°C° 1.1 mm 2 m/S 740 mmHg 97%
    11:00 +15°C° 1.1 mm 2 m/S 740 mmHg 97%
    12:00 +16°C° 0.1 mm 2 m/S 740 mmHg 93%
    13:00 +17°C° 0.1 mm 2 m/S 741 mmHg 90%
    14:00 +18°C° 0.1 mm 2 m/S 741 mmHg 87%
    15:00 +19°C° 0.1 mm 2 m/S 741 mmHg 84%
    16:00 +19°C° 0.1 mm 2 m/S 742 mmHg 82%
    17:00 +20°C° 0.1 mm 2 m/S 742 mmHg 79%
    18:00 +19°C° 0 mm 1 m/S 743 mmHg 83%
    19:00 +16°C° 0 mm 1 m/S 743 mmHg 88%
    20:00 +14°C° 0 mm 0 m/S 743 mmHg 92%
    21:00 +14°C° 0 mm 0 m/S 743 mmHg 93%
    22:00 +14°C° 0 mm 1 m/S 744 mmHg 94%
    23:00 +14°C° 0 mm 1 m/S 744 mmHg 94%

    übermorgen, 19 August, Montag

    Zeit Temperatur Niederschläge Wind Luftdruck Luftfeuchtigkeit
    00:00 +14°C° 0 mm 1 m/S 744 mmHg 95%
    01:00 +13°C° 0 mm 1 m/S 745 mmHg 95%
    02:00 +13°C° 0 mm 1 m/S 745 mmHg 96%
    03:00 +13°C° 0 mm 1 m/S 745 mmHg 95%
    04:00 +13°C° 0 mm 1 m/S 745 mmHg 95%
    05:00 +12°C° 0 mm 1 m/S 746 mmHg 94%
    06:00 +14°C° 0 mm 1 m/S 746 mmHg 89%
    07:00 +16°C° 0 mm 1 m/S 746 mmHg 84%
    08:00 +18°C° 0 mm 2 m/S 747 mmHg 79%
    09:00 +20°C° 0 mm 2 m/S 747 mmHg 72%
    10:00 +21°C° 0 mm 2 m/S 747 mmHg 65%
    11:00 +24°C° 0 mm 2 m/S 747 mmHg 58%
    12:00 +25°C° 0 mm 2 m/S 747 mmHg 57%
    13:00 +25°C° 0 mm 2 m/S 747 mmHg 57%
    14:00 +26°C° 0 mm 3 m/S 747 mmHg 56%
    15:00 +25°C° 0 mm 2 m/S 747 mmHg 61%
    16:00 +25°C° 0 mm 2 m/S 747 mmHg 65%
    17:00 +25°C° 0 mm 2 m/S 748 mmHg 70%
    18:00 +23°C° 0 mm 1 m/S 748 mmHg 76%
    19:00 +21°C° 0 mm 1 m/S 748 mmHg 82%
    20:00 +19°C° 0 mm 1 m/S 748 mmHg 88%
    21:00 +17°C° 0 mm 2 m/S 748 mmHg 89%
    22:00 +17°C° 0 mm 2 m/S 748 mmHg 90%
    23:00 +16°C° 0 mm 2 m/S 748 mmHg 91%

    20 August, Dienstag

    Zeit Temperatur Niederschläge Wind Luftdruck Luftfeuchtigkeit
    00:00 +16°C° 0 mm 2 m/S 748 mmHg 91%
    01:00 +16°C° 0 mm 2 m/S 748 mmHg 91%
    02:00 +16°C° 0 mm 2 m/S 748 mmHg 91%
    03:00 +16°C° 0 mm 2 m/S 748 mmHg 90%
    04:00 +16°C° 0 mm 2 m/S 749 mmHg 89%
    05:00 +16°C° 0 mm 2 m/S 749 mmHg 88%
    06:00 +17°C° 0 mm 2 m/S 749 mmHg 83%
    07:00 +19°C° 0 mm 2 m/S 749 mmHg 77%
    08:00 +21°C° 0 mm 2 m/S 749 mmHg 71%
    09:00 +23°C° 0 mm 2 m/S 749 mmHg 66%
    10:00 +25°C° 0 mm 2 m/S 749 mmHg 62%
    11:00 +26°C° 0 mm 3 m/S 749 mmHg 57%
    12:00 +27°C° 0 mm 3 m/S 749 mmHg 56%
    13:00 +27°C° 0 mm 2 m/S 749 mmHg 56%
    14:00 +28°C° 0 mm 2 m/S 749 mmHg 55%
    15:00 +27°C° 0 mm 2 m/S 749 mmHg 60%
    16:00 +27°C° 0 mm 2 m/S 748 mmHg 65%
    17:00 +26°C° 0 mm 1 m/S 748 mmHg 69%
    18:00 +25°C° 0 mm 1 m/S 748 mmHg 74%
    19:00 +23°C° 0 mm 1 m/S 748 mmHg 80%
    20:00 +21°C° 0 mm 1 m/S 749 mmHg 85%
    21:00 +21°C° 0 mm 1 m/S 749 mmHg 86%
    22:00 +20°C° 0 mm 1 m/S 749 mmHg 88%
    23:00 +20°C° 0 mm 1 m/S 749 mmHg 89%

    21 August, Mittwoch

    Zeit Temperatur Niederschläge Wind Luftdruck Luftfeuchtigkeit
    00:00 +19°C° 0 mm 1 m/S 749 mmHg 90%
    01:00 +19°C° 0 mm 1 m/S 749 mmHg 91%
    02:00 +19°C° 0 mm 1 m/S 749 mmHg 91%
    03:00 +19°C° 0 mm 1 m/S 749 mmHg 92%
    04:00 +19°C° 0 mm 1 m/S 749 mmHg 93%
    05:00 +18°C° 0 mm 1 m/S 749 mmHg 93%
    06:00 +20°C° 0 mm 1 m/S 749 mmHg 87%
    07:00 +22°C° 0 mm 1 m/S 749 mmHg 80%
    08:00 +24°C° 0 mm 1 m/S 749 mmHg 74%
    09:00 +25°C° 0 mm 1 m/S 749 mmHg 69%
    10:00 +27°C° 0 mm 1 m/S 749 mmHg 64%
    11:00 +28°C° 0 mm 1 m/S 749 mmHg 59%
    12:00 +29°C° 0 mm 1 m/S 749 mmHg 58%
    13:00 +29°C° 0 mm 2 m/S 748 mmHg 57%
    14:00 +29°C° 0 mm 2 m/S 748 mmHg 56%
    15:00 +28°C° 0 mm 2 m/S 748 mmHg 60%
    16:00 +28°C° 0 mm 2 m/S 747 mmHg 65%
    17:00 +27°C° 0 mm 2 m/S 747 mmHg 69%
    18:00 +25°C° 0 mm 2 m/S 747 mmHg 75%
    19:00 +23°C° 0 mm 2 m/S 747 mmHg 80%
    20:00 +20°C° 0 mm 2 m/S 747 mmHg 86%
    21:00 +19°C° 0 mm 2 m/S 746 mmHg 87%
    22:00 +19°C° 0 mm 2 m/S 746 mmHg 89%
    23:00 +18°C° 0 mm 2 m/S 746 mmHg 90%

    22 August, Donnerstag

    Zeit Temperatur Niederschläge Wind Luftdruck Luftfeuchtigkeit
    00:00 +18°C° 0 mm 2 m/S 746 mmHg 91%
    01:00 +19°C° 0 mm 1 m/S 745 mmHg 93%
    02:00 +18°C° 0 mm 1 m/S 745 mmHg 94%
    03:00 +18°C° 0 mm 1 m/S 745 mmHg 95%
    04:00 +18°C° 0 mm 1 m/S 745 mmHg 95%
    05:00 +18°C° 0 mm 1 m/S 745 mmHg 95%
    06:00 +18°C° 0 mm 2 m/S 745 mmHg 90%
    07:00 +20°C° 0 mm 3 m/S 746 mmHg 85%
    08:00 +21°C° 0 mm 3 m/S 746 mmHg 81%
    09:00 +21°C° 0 mm 4 m/S 747 mmHg 79%
    10:00 +20°C° 0 mm 4 m/S 747 mmHg 77%
    11:00 +20°C° 0 mm 4 m/S 748 mmHg 75%
    12:00 +20°C° 0 mm 4 m/S 748 mmHg 71%
    13:00 +21°C° 0 mm 4 m/S 748 mmHg 67%
    14:00 +22°C° 0 mm 4 m/S 749 mmHg 63%
    15:00 +21°C° 0 mm 4 m/S 749 mmHg 66%
    16:00 +20°C° 0 mm 3 m/S 749 mmHg 68%
    17:00 +20°C° 0 mm 3 m/S 749 mmHg 70%
    18:00 +18°C° 0 mm 2 m/S 749 mmHg 76%
    19:00 +16°C° 0 mm 2 m/S 749 mmHg 83%
    20:00 +15°C° 0 mm 1 m/S 750 mmHg 89%
    21:00 +14°C° 0 mm 1 m/S 750 mmHg 90%
    22:00 +14°C° 0 mm 1 m/S 750 mmHg 91%
    23:00 +14°C° 0 mm 1 m/S 751 mmHg 92%
    Mehr zeigen